Location: Boussac
(44.2782°N, 2.3665°E)
Time: 07:21:10
(UTC+00:00)

Cosmos 158 Rocket - Pass Details

Date: 15 May 2026
Orbit: 694 x 785 km, 74.0° (Epoch: 6 June)

Event Time Altitude Azimuth Distance (km) Brightness Sun altitude
Exits shadow 23:39:40 49° 91° (E) 1,006 4.5 -26.6°
Drops below altitude 10° 23:44:28 10° 31° (NNE) 2,341 7.2 -26.7°
Sets 23:46:54 0° 26° (NNE) 3,265 8.2 -26.7°
